DW8450 Weather Reports


Display with metric or nautical units.
time (UTC)temp
F
wind
direction
speed
MPH
gust
MPH
rain 1hr
in
rain 24hr
in
rain mn
in
humidity
%
barometer
mb
20260510203045 64 98 8.0 15.0 0.00 0.00 0.00 38 1011.4
20260510201544 65 105 10.0 16.0 0.00 0.00 0.00 35 1010.9
20260510200044 69 98 12.0 23.0 0.00 0.00 0.00 32 1010.3
20260510194542 72 107 9.0 16.0 0.00 0.00 0.00 29 1010.1
20260510193044 73 125 8.0 15.0 0.00 0.00 0.00 25 1010.0
20260510191542 72 150 6.0 14.0 0.00 0.00 0.00 27 1010.0
20260510190041 72 126 8.0 14.0 0.00 0.00 0.00 27 1010.3
20260510184538 73 136 7.0 16.0 0.00 0.00 0.00 26 1010.3
20260510183034 73 110 3.0 13.0 0.00 0.00 0.00 24 1010.3
20260510181559 72 140 5.0 10.0 0.00 0.00 0.00 26 1010.3
20260510180036 72 161 2.0 9.0 0.00 0.00 0.00 25 1010.5
20260510174531 71 89 5.0 9.0 0.00 0.00 0.00 27 1010.6
20260510173021 70 126 6.0 12.0 0.00 0.00 0.00 26 1010.8
20260510171518 69 155 4.0 11.0 0.00 0.00 0.00 29 1010.7
20260510170016 68 70 3.0 12.0 0.00 0.00 0.00 31 1010.7
20260510164510 67 175 6.0 11.0 0.00 0.00 0.00 31 1010.7
20260510163006 65 105 5.0 11.0 0.00 0.00 0.00 35 1010.5
20260510161502 64 126 8.0 16.0 0.00 0.00 0.00 36 1010.6
20260510160104 63 81 6.0 14.0 0.00 0.00 0.00 37 1010.5
20260510154558 63 93 8.0 14.0 0.00 0.00 0.00 38 1010.5
20260510153051 65 131 4.0 16.0 0.00 0.00 0.00 34 1010.2
20260510151549 65 138 7.0 13.0 0.00 0.00 0.00 33 1010.0
20260510150046 65 136 3.0 9.0 0.00 0.00 0.00 30 1009.8
20260510144544 64 115 5.0 11.0 0.00 0.00 0.00 31 1010.0
20260510143037 62 139 4.0 9.0 0.00 0.00 0.00 33 1010.0
20260510141537 60 118 4.0 12.0 0.00 0.00 0.00 35 1009.8
20260510140030 58 84 3.0 8.0 0.00 0.00 0.00 37 1009.6
20260510134527 56 62 1.0 8.0 0.00 0.00 0.00 38 1009.5
20260510133024 56 59 1.0 5.0 0.00 0.00 0.00 38 1009.3
20260510131522 56 59 1.0 3.0 0.00 0.00 0.00 38 1009.1
20260510130021 56 59 0.0 3.0 0.00 0.00 0.00 37 1009.1
20260510124517 57 59 0.0 4.0 0.00 0.00 0.00 36 1008.8
20260510123015 57 59 1.0 5.0 0.00 0.00 0.00 34 1008.7
20260510121511 58 59 2.0 6.0 0.00 0.00 0.00 33 1008.6
20260510120011 59 59 0.0 6.0 0.00 0.00 0.00 32 1008.7
20260510114511 59 47 5.0 10.0 0.00 0.00 0.00 31 1008.4
20260510113008 59 98 3.0 8.0 0.00 0.00 0.00 30 1008.5
20260510111514 60 103 2.0 9.0 0.00 0.00 0.00 29 1008.8
20260510110010 59 166 2.0 9.0 0.00 0.00 0.00 30 1009.0
20260510104505 58 90 1.0 6.0 0.00 0.00 0.00 29 1008.9
20260510103003 58 91 0.0 8.0 0.00 0.00 0.00 28 1008.1
20260510101501 57 80 0.0 10.0 0.00 0.00 0.00 29 1008.2
20260510100001 56 132 1.0 8.0 0.00 0.00 0.00 27 1007.9
20260510094600 55 348 1.0 4.0 0.00 0.00 0.00 27 1008.1
20260510093101 55 348 0.0 2.0 0.00 0.00 0.00 25 1007.9
20260510091557 56 348 0.0 0.0 0.00 0.00 0.00 25 1007.2
20260510090051 56 348 0.0 2.0 0.00 0.00 0.00 25 1006.8
20260510084549 56 348 1.0 3.0 0.00 0.00 0.00 25 1006.6
20260510083053 57 348 0.0 1.0 0.00 0.00 0.00 25 1006.5
20260510081547 58 348 0.0 0.0 0.00 0.00 0.00 24 1006.4
20260510080043 58 348 0.0 3.0 0.00 0.00 0.00 24 1006.5
20260510074541 58 348 0.0 2.0 0.00 0.00 0.00 23 1006.3
20260510073040 59 348 1.0 3.0 0.00 0.00 0.00 23 1006.5
20260510071548 60 348 0.0 0.0 0.00 0.00 0.00 22 1006.5
20260510070036 60 348 0.0 0.0 0.00 0.00 0.00 21 1006.6
20260510064534 60 348 1.0 3.0 0.00 0.00 0.00 21 1006.4
20260510063031 61 348 0.0 1.0 0.00 0.00 0.00 21 1006.5
20260510061540 61 348 1.0 3.0 0.00 0.00 0.00 20 1006.3
20260510060025 63 348 0.0 5.0 0.00 0.00 0.00 20 1006.1
20260510054525 64 348 3.0 5.0 0.00 0.00 0.00 19 1006.1
20260510053024 65 348 1.0 8.0 0.00 0.00 0.00 18 1005.9
20260510051524 66 349 3.0 8.0 0.00 0.00 0.00 18 1005.9
20260510050028 66 360 5.0 10.0 0.00 0.00 0.00 17 1005.9
20260510044523 66 355 4.0 9.0 0.00 0.00 0.00 16 1006.0
20260510043024 66 348 3.0 8.0 0.00 0.00 0.00 16 1006.1
20260510041522 65 348 3.0 8.0 0.00 0.00 0.00 15 1005.9
20260510040022 65 340 3.0 10.0 0.00 0.00 0.00 15 1005.9
20260510034521 66 308 0.0 3.0 0.00 0.00 0.00 14 1005.8
20260510033021 67 308 0.0 1.0 0.00 0.00 0.00 13 1005.5
20260510031536 68 308 0.0 1.0 0.00 0.00 0.00 13 1005.3
20260510030023 69 308 0.0 2.0 0.00 0.00 0.00 12 1005.1
20260510024533 69 308 1.0 5.0 0.00 0.00 0.00 12 1004.7
20260510023020 70 308 3.0 8.0 0.00 0.00 0.00 11 1004.6
20260510021523 71 308 5.0 10.0 0.00 0.00 0.00 11 1004.3
20260510020019 72 302 4.0 12.0 0.00 0.00 0.00 10 1004.1
20260510014519 73 306 2.0 11.0 0.00 0.00 0.00 10 1003.9
20260510013018 73 311 7.0 16.0 0.00 0.00 0.00 10 1003.8
20260510011525 74 311 6.0 12.0 0.00 0.00 0.00 9 1003.7
20260510010019 74 305 6.0 14.0 0.00 0.00 0.00 9 1003.6
20260510004516 75 276 6.0 12.0 0.00 0.00 0.00 9 1003.5
20260510003045 76 273 6.0 14.0 0.00 0.00 0.00 8 1003.4
20260510001517 77 287 7.0 17.0 0.00 0.00 0.00 8 1003.4
20260510000015 78 271 10.0 22.0 0.00 0.00 0.00 7 1003.3
20260509234526 78 305 7.0 18.0 0.00 0.00 0.00 7 1003.4
20260509233021 78 279 5.0 18.0 0.00 0.00 0.00 8 1003.3
20260509231521 79 305 8.0 12.0 0.00 0.00 0.00 8 1003.3
20260509230015 80 253 9.0 15.0 0.00 0.00 0.00 7 1003.4
20260509224511 80 277 11.0 19.0 0.00 0.00 0.00 8 1003.5
20260509223010 81 314 8.0 19.0 0.00 0.00 0.00 8 1003.6
20260509221508 79 266 7.0 15.0 0.00 0.00 0.00 9 1003.7
20260509220008 77 286 5.0 12.0 0.00 0.00 0.00 9 1004.0
20260509214508 78 309 7.0 13.0 0.00 0.00 0.00 9 1004.1
20260509213003 80 225 6.0 16.0 0.00 0.00 0.00 9 1004.3
20260509211502 81 298 9.0 16.0 0.00 0.00 0.00 8 1004.6
20260509210104 80 297 7.0 19.0 0.00 0.00 0.00 8 1004.7
20260509204558 78 307 4.0 13.0 0.00 0.00 0.00 9 1005.0